Temp
6 6 5 5 5 4 5 5 5 5 5 5 5 6 6 6 6 5 6 6 6 6 6 6 6 5 6 6 6 6 6 6 6 7 7 8 8 7 6 6 7 7 7
6 5 5 5 5 4 5 5 5 5 5 5 5 5 5 5 5 5 5 6 6 6 6 6 6 6 5 5 5 5 6 6 6 7 7 7 8 7 7 7 7 7 7
6 5 5 5 4 5 4 5 4 5 5 5 5 5 5 5 5 6 5 5 5 6 6 6 6 6 6 6 5 5 5 5 6 6 7 7 7 7 7 7 7 7 7
6 6 6 5 4 4 4 4 4 5 5 5 5 5 5 5 5 5 5 6 6 5 5 5 6 6 6 6 5 5 5 5 5 6 6 7 7 7 7 7 7 7 7
6 6 5 5 5 5 4 4 4 4 5 5 5 5 5 5 5 5 5 5 6 5 5 5 5 5 5 6 6 6 5 5 5 6 6 6 6 6 6 7 7 7 7
6 6 5 5 5 5 4 4 4 4 4 5 5 5 5 5 5 5 5 5 6 5 5 5 6 5 5 5 5 6 6 5 5 6 5 6 6 7 6 6 6 7 7
6 5 5 5 5 4 5 5 5 5 5 5 5 5 5 5 5 5 5 5 5 5 5 5 5 5 5 5 5 5 5 6 6 6 6 6 6 6 5 5 5 6 6
5 5 5 5 4 4 4 4 5 5 5 5 5 5 5 5 5 5 5 5 5 5 5 5 5 5 5 5 5 5 5 5 5 6 6 6 6 6 6 5 5 5 5
4 4 5 5 4 4 4 4 4 5 5 5 5 5 5 5 5 5 4 5 5 5 5 5 5 5 5 5 5 5 5 5 6 5 5 6 6 6 7 6 5 5 5
4 4 3 3 4 4 4 5 5 4 4 5 5 5 5 5 5 5 5 5 5 5 5 5 5 5 5 5 5 5 5 5 6 6 6 5 6 5 6 7 5 5 6
4 4 3 3 3 3 3 3 4 4 5 4 5 5 5 5 5 5 5 5 5 5 5 5 5 4 4 5 5 5 5 5 5 6 6 6 6 6 6 6 6 5 5
4 4 3 3 3 3 3 3 3 4 4 5 5 5 5 5 5 5 5 5 5 6 5 5 5 5 5 4 4 4 5 5 5 6 6 6 6 5 5 6 6 6 5
4 3 3 3 3 3 3 3 3 3 4 4 4 4 4 5 4 5 5 5 5 5 6 6 5 5 5 5 5 4 4 4 5 5 5 6 6 5 5 6 6 6 5
3 3 3 2 2 2 3 3 3 3 3 3 3 3 3 4 4 4 5 5 5 5 5 5 5 5 5 5 5 5 5 4 4 5 5 5 6 6 5 5 6 6 5
2 2 2 2 2 2 2 2 2 2 1 2 1 1 2 2 3 3 4 5 5 5 5 5 5 5 5 5 5 5 4 5 5 4 4 5 5 5 5 5 5 5 6
2 2 2 2 2 1 1 1 1 1 1 2 2 3 4 4 4 4 4 4 4 5 5 5 5 5 5 5 5 5 5 5 4 5 5 4 5 5 5 5 5 5 5
2 2 2 1 1 1 1 1 1 1 2 2 2 3 3 4 4 4 4 4 5 5 5 4 4 5 5 5 5 5 5 4 5 4 5 5 5 5 5 5 5 5 5
1 1 0 0 -0 -1 -1 -1 -1 -0 -0 -0 -0 0 0 1 2 2 2 2 3 4 4 5 5 5 4 4 4 4 4 5 5 5 4 4 4 4 4 5 4 4 5
-0 -1 -1 -1 -1 -1 -2 -2 -2 -2 -2 -2 -2 -2 -2 -2 -1 -1 -0 0 0 1 2 2 3 4 5 4 4 4 4 4 4 4 4 4 4 4 4 4 4 4 4
-1 -2 -2 -2 -2 -2 -2 -2 -3 -4 -4 -4 -4 -4 -3 -4 -5 -5 -6 -6 -5 -4 -3 -2 -1 0 1 3 4 3 3 3 3 3 3 3 3 3 3 4 4 4 4
-2 -2 -3 -3 -3 -3 -3 -4 -4 -4 -4 -4 -5 -5 -5 -5 -6 -6 -7 -7 -8 -8 -8 -8 -6 -4 -2 -1 1 3 4 1 1 2 2 2 2 2 3 3 3 3 3
-3 -3 -4 -4 -4 -4 -4 -5 -5 -5 -5 -5 -6 -6 -7 -8 -9 -9 -10 -10 -10 -10 -10 -10 -9 -9 -8 -6 -4 -3 1 0 -3 1 0 -0 -0 1 2 2 3 3 2
-4 -4 -4 -5 -5 -5 -6 -6 -6 -6 -7 -7 -8 -9 -10 -11 -11 -11 -12 -11 -11 -11 -11 -11 -11 -11 -10 -9 -9 -8 -6 -4 -3 -4 -2 -2 -1 0 1 2 2 3 2
-4 -5 -6 -5 -6 -6 -7 -7 -8 -8 -9 -10 -10 -11 -12 -12 -12 -12 -12 -12 -12 -12 -12 -13 -13 -12 -12 -11 -10 -11 -10 -9 -7 -4 -6 -5 -4 -2 -0 1 1 2 2
-5 -5 -6 -6 -7 -8 -8 -9 -10 -10 -11 -12 -12 -13 -13 -13 -13 -13 -13 -14 -14 -13 -13 -13 -13 -13 -12 -12 -12 -11 -11 -11 -10 -9 -7 -6 -6 -5 -2 -1 1 1 1
-6 -6 -7 -8 -9 -9 -10 -11 -11 -12 -13 -13 -13 -14 -14 -14 -14 -14 -15 -15 -14 -14 -14 -14 -14 -14 -13 -13 -13 -12 -12 -12 -12 -11 -10 -9 -6 -7 -5 -2 -1 -0 -0
Height
3140 3140 3142 3141 3143 3142 3143 3143 3142 3143 3145 3146 3146 3144 3146 3146 3148 3148 3148 3148 3148 3148 3149 3149 3148 3148 3147 3148 3149 3149 3150 3150 3151 3151 3150 3150 3152 3154 3153 3155 3156 3158 3158
3138 3139 3140 3141 3142 3142 3141 3142 3141 3142 3143 3144 3145 3144 3145 3145 3146 3146 3147 3147 3147 3148 3148 3148 3147 3147 3147 3144 3149 3150 3150 3150 3151 3151 3150 3150 3151 3152 3154 3154 3156 3158 3159
3136 3135 3136 3138 3138 3140 3140 3139 3141 3141 3142 3142 3143 3143 3144 3144 3146 3146 3144 3146 3146 3147 3147 3147 3147 3147 3147 3145 3145 3149 3149 3150 3150 3150 3151 3150 3150 3151 3152 3153 3155 3157 3159
3131 3132 3133 3134 3135 3135 3136 3136 3137 3138 3139 3139 3141 3141 3141 3142 3143 3145 3145 3144 3144 3144 3145 3146 3146 3146 3147 3147 3145 3147 3149 3149 3149 3150 3150 3150 3149 3150 3151 3152 3153 3155 3158
3129 3130 3131 3133 3133 3132 3133 3133 3134 3134 3135 3135 3136 3137 3139 3139 3140 3141 3142 3143 3142 3143 3143 3143 3145 3145 3145 3147 3147 3147 3147 3149 3148 3149 3149 3149 3150 3149 3150 3151 3152 3153 3156
3127 3128 3128 3129 3131 3131 3131 3132 3132 3132 3132 3132 3133 3134 3134 3135 3136 3137 3138 3139 3140 3140 3140 3141 3141 3142 3143 3143 3144 3146 3146 3146 3147 3148 3148 3148 3149 3150 3151 3151 3152 3153 3154
3123 3123 3124 3124 3126 3127 3126 3126 3126 3126 3127 3128 3129 3129 3130 3130 3131 3132 3132 3133 3135 3136 3136 3137 3138 3139 3139 3140 3141 3143 3144 3145 3145 3146 3147 3147 3148 3150 3150 3149 3151 3152 3153
3120 3120 3121 3122 3123 3123 3122 3123 3123 3124 3124 3125 3124 3124 3125 3125 3126 3126 3128 3129 3129 3130 3131 3132 3134 3135 3136 3137 3138 3139 3141 3142 3143 3143 3144 3145 3146 3147 3148 3148 3149 3151 3152
3115 3116 3116 3116 3116 3118 3118 3119 3120 3120 3119 3119 3119 3119 3120 3121 3121 3121 3122 3123 3124 3124 3125 3126 3128 3129 3131 3132 3133 3136 3137 3139 3140 3141 3141 3142 3143 3145 3145 3146 3148 3149 3150
3111 3111 3112 3112 3113 3113 3112 3114 3114 3113 3114 3115 3114 3114 3114 3114 3115 3116 3116 3117 3117 3118 3119 3120 3121 3123 3124 3125 3127 3129 3132 3134 3136 3137 3138 3139 3141 3142 3142 3143 3144 3146 3147
3106 3106 3105 3105 3105 3106 3107 3107 3107 3107 3107 3107 3108 3109 3108 3108 3109 3109 3111 3111 3111 3112 3112 3114 3116 3116 3118 3119 3120 3123 3125 3127 3130 3133 3135 3136 3137 3138 3139 3139 3140 3142 3145
3101 3100 3099 3099 3099 3099 3099 3099 3099 3100 3100 3100 3100 3099 3100 3100 3101 3101 3101 3102 3103 3104 3104 3106 3108 3109 3111 3112 3113 3115 3117 3120 3123 3126 3129 3131 3133 3134 3135 3136 3136 3138 3139
3096 3096 3095 3094 3094 3093 3093 3093 3093 3093 3092 3093 3093 3093 3092 3092 3093 3092 3092 3094 3094 3095 3095 3096 3098 3100 3102 3104 3105 3107 3109 3112 3114 3118 3121 3124 3127 3129 3130 3132 3133 3134 3136
3090 3089 3089 3088 3089 3088 3088 3087 3086 3085 3085 3085 3085 3085 3086 3085 3083 3083 3084 3084 3084 3084 3086 3088 3089 3089 3091 3093 3095 3098 3099 3101 3105 3108 3113 3116 3119 3123 3125 3127 3128 3129 3131
3083 3083 3082 3082 3081 3080 3079 3078 3078 3077 3077 3076 3076 3075 3075 3075 3075 3076 3076 3076 3075 3075 3075 3076 3078 3079 3080 3081 3084 3086 3090 3092 3094 3098 3102 3107 3110 3115 3117 3121 3123 3124 3125
3076 3076 3076 3075 3074 3072 3071 3070 3070 3069 3069 3068 3067 3066 3065 3064 3062 3061 3061 3061 3062 3063 3065 3065 3065 3066 3069 3070 3071 3074 3077 3080 3084 3086 3090 3096 3101 3105 3109 3112 3116 3118 3120
3071 3070 3069 3068 3067 3065 3064 3063 3062 3061 3060 3059 3057 3055 3054 3053 3053 3052 3051 3049 3048 3047 3048 3050 3052 3053 3053 3055 3058 3060 3062 3067 3070 3075 3078 3083 3089 3094 3099 3103 3106 3111 3113
3063 3062 3061 3060 3059 3057 3057 3056 3055 3053 3052 3050 3049 3049 3045 3044 3043 3042 3040 3039 3038 3037 3036 3036 3036 3037 3039 3041 3042 3045 3049 3051 3055 3060 3065 3071 3076 3082 3087 3092 3096 3100 3105
3054 3054 3053 3052 3051 3050 3049 3048 3046 3044 3042 3040 3037 3035 3034 3031 3029 3028 3027 3026 3026 3025 3024 3023 3022 3022 3023 3024 3025 3029 3032 3036 3041 3045 3050 3055 3062 3068 3075 3080 3085 3089 3094
3046 3045 3044 3043 3042 3041 3040 3039 3036 3034 3031 3027 3022 3019 3016 3015 3013 3011 3009 3008 3009 3010 3010 3009 3008 3009 3008 3008 3008 3010 3015 3019 3024 3029 3034 3040 3046 3053 3060 3067 3072 3077 3083
3038 3037 3036 3035 3033 3032 3030 3029 3027 3024 3022 3019 3014 3010 3005 3001 2997 2995 2994 2994 2992 2992 2992 2993 2994 2995 2995 2994 2992 2994 2996 3002 3006 3011 3017 3022 3029 3037 3044 3052 3059 3065 3071
3029 3029 3029 3029 3027 3025 3023 3021 3018 3014 3011 3007 3004 3002 2999 2995 2992 2988 2984 2981 2981 2980 2979 2978 2979 2980 2981 2980 2977 2977 2979 2985 2987 2992 2999 3007 3013 3018 3025 3033 3041 3051 3058
3023 3024 3023 3022 3021 3019 3016 3013 3010 3006 3003 2999 2995 2993 2992 2988 2984 2980 2976 2972 2969 2967 2968 2970 2969 2968 2967 2967 2967 2966 2965 2966 2964 2977 2981 2987 2990 2999 3006 3016 3025 3033 3040
3016 3017 3017 3015 3013 3011 3008 3005 3001 2998 2993 2990 2988 2984 2981 2980 2976 2971 2968 2966 2963 2960 2959 2957 2957 2956 2955 2955 2956 2956 2955 2953 2952 2951 2967 2972 2975 2981 2989 2997 3008 3018 3026
3010 3010 3010 3009 3007 3004 3000 2997 2992 2987 2984 2980 2977 2973 2970 2967 2965 2963 2961 2957 2954 2951 2950 2949 2948 2947 2946 2944 2945 2945 2944 2944 2944 2943 2937 2957 2958 2963 2970 2981 2989 2999 3010
3005 3005 3004 3003 2999 2995 2991 2987 2982 2978 2975 2972 2968 2964 2960 2957 2955 2953 2950 2948 2946 2944 2942 2940 2939 2938 2937 2936 2935 2936 2935 2934 2934 2934 2932 2933 2946 2954 2955 2964 2972 2983 2992
Wind_Speed
16 19 11 10 11 10 9 12 12 10 8 9 9 9 13 10 5 7 9 9 9 9 9 8 7 7 11 10 7 5 3 6 8 9 5 1 5 10 12 10 8 6 5
19 21 23 17 11 10 11 14 15 14 12 11 11 10 12 14 10 10 8 9 12 12 11 12 11 10 11 12 4 4 6 8 10 11 7 3 5 8 13 12 9 8 7
23 24 22 17 16 18 17 7 14 19 16 16 15 13 13 10 12 14 11 11 12 13 15 15 15 13 12 9 9 12 8 12 11 12 10 6 5 8 12 16 14 10 9
19 23 25 20 18 15 14 18 16 17 19 18 19 17 16 16 15 15 14 17 13 13 15 15 17 16 14 10 8 5 15 17 15 15 12 9 6 6 9 15 16 14 11
17 20 22 22 23 22 20 17 19 20 19 21 19 21 19 19 19 20 20 19 20 20 18 18 17 18 16 15 15 13 11 13 15 15 12 9 7 6 4 9 14 14 13
16 17 18 20 19 18 19 18 18 18 20 20 21 21 22 23 23 23 24 23 22 22 21 22 22 20 20 19 17 17 15 11 17 15 12 10 9 8 10 8 9 12 14
16 16 17 17 19 20 20 20 21 20 21 22 23 24 26 26 27 27 26 27 27 26 26 25 24 23 22 21 19 16 16 14 17 16 15 13 10 11 15 15 12 11 11
17 18 19 19 20 20 20 22 23 24 24 24 24 25 25 28 29 29 30 30 29 29 29 27 27 27 26 24 23 20 19 18 19 20 17 17 14 13 17 17 17 16 12
17 18 19 20 21 22 22 23 24 25 26 27 28 28 27 28 29 32 32 33 32 32 32 31 30 29 28 28 27 25 24 22 21 22 20 19 17 16 19 23 18 21 17
20 21 21 22 23 23 24 24 26 27 27 28 29 30 31 32 32 33 35 36 36 36 36 36 35 34 33 33 32 30 28 27 24 26 25 21 19 19 20 24 25 21 25
23 24 25 26 25 25 25 25 26 27 28 28 29 30 32 34 35 36 37 39 40 39 39 40 39 39 38 37 36 35 33 32 30 28 29 25 23 22 22 24 27 25 25
27 28 28 28 27 27 26 26 27 27 28 29 30 31 31 32 33 35 37 38 40 42 43 43 44 43 43 43 41 40 40 38 36 34 31 30 26 26 25 24 28 29 26
30 30 30 29 28 28 29 30 30 30 30 30 30 31 32 33 34 36 37 37 39 41 43 46 46 47 47 46 46 45 43 42 40 39 37 34 31 27 29 27 28 33 31
31 30 29 28 29 29 31 31 32 32 31 29 29 29 31 33 36 36 37 39 41 42 42 43 46 50 50 51 51 49 49 47 45 43 40 39 37 33 32 32 31 32 35
31 30 30 30 31 32 32 33 32 30 29 30 32 33 34 35 36 37 39 42 44 44 46 47 46 47 50 53 53 54 53 53 51 49 46 43 42 38 39 36 35 35 36
31 31 32 34 34 34 35 32 30 31 33 35 37 40 41 41 42 43 44 44 44 44 47 49 52 52 51 52 53 56 58 57 56 55 52 49 46 43 41 42 39 39 38
33 33 34 35 35 35 32 31 33 35 37 41 41 41 43 44 44 45 46 48 50 51 51 50 51 54 56 56 56 56 58 60 61 60 59 56 52 49 46 44 44 42 42
35 35 36 36 35 31 30 31 33 37 40 41 43 45 44 46 47 46 45 45 48 50 52 55 58 58 57 57 59 59 60 62 62 63 63 61 58 54 51 49 48 46 45
36 36 36 34 32 31 31 33 35 38 42 45 46 47 47 46 46 47 47 46 46 46 49 52 55 59 62 61 61 62 64 63 65 64 65 65 63 60 56 54 52 50 47
36 36 36 33 31 31 34 37 40 42 46 49 51 50 51 49 47 47 45 45 45 45 46 49 52 54 58 63 67 64 65 66 65 67 67 66 67 64 62 58 57 55 52
36 36 34 32 32 34 37 41 44 48 49 49 49 50 50 51 52 50 49 47 46 45 44 42 45 51 56 60 64 69 70 64 64 65 67 68 67 67 65 63 59 57 54
36 34 31 30 32 36 39 44 48 50 51 51 49 47 47 47 47 46 46 46 44 43 42 41 41 44 48 52 59 65 70 68 59 64 63 64 63 67 70 68 64 61 58
34 31 30 31 34 37 43 47 49 49 50 48 47 45 41 40 41 41 42 44 44 44 42 39 39 41 45 47 49 54 62 67 68 55 59 60 67 69 71 72 69 67 63
31 29 29 32 36 42 46 47 47 47 46 43 42 41 39 36 36 38 40 40 41 41 41 40 38 38 40 42 43 44 49 52 55 68 49 51 56 64 69 72 72 70 67
28 28 30 33 40 44 44 44 45 42 41 41 40 39 37 36 36 35 36 36 37 38 38 38 37 38 38 40 39 40 42 44 46 51 62 47 51 58 67 70 73 73 70
27 29 32 38 41 41 41 41 40 39 38 38 36 36 37 36 35 34 32 33 33 35 36 37 37 37 38 39 39 38 40 41 41 45 51 51 47 49 59 65 70 72 71
Wind_Direction
220 222 216 203 236 247 239 228 236 233 239 217 202 209 234 273 289 295 289 264 256 259 267 272 276 268 253 236 249 274 310 329 338 346 332 284 234 203 196 204 209 199 186
230 233 227 222 209 240 246 239 237 238 239 245 242 230 223 226 253 292 291 283 276 270 261 267 270 273 285 260 263 308 330 329 332 337 325 282 229 231 212 206 217 221 207
237 226 230 233 241 237 239 219 252 250 244 246 244 244 244 240 227 237 271 277 269 269 273 272 269 271 283 301 221 281 331 324 328 333 322 287 243 233 232 221 220 229 224
233 226 234 234 225 238 250 248 250 254 257 253 254 255 253 251 243 246 245 253 262 267 267 273 273 272 275 280 277 265 283 312 302 318 312 295 261 242 236 226 219 222 229
256 245 234 233 241 246 243 238 249 250 252 262 246 255 259 256 255 250 251 253 254 262 267 265 268 273 274 275 276 281 283 307 287 309 303 289 264 221 229 221 222 217 220
252 244 241 243 245 248 254 253 253 255 253 259 258 255 257 257 256 256 255 255 255 261 266 265 263 268 272 275 283 278 269 260 272 292 288 290 268 227 218 215 219 226 220
238 236 237 237 238 239 246 252 255 257 256 258 257 255 256 255 255 258 256 257 260 259 265 264 263 267 265 269 269 274 278 276 275 281 277 272 269 249 224 225 220 225 224
243 243 243 244 246 251 256 256 256 257 259 262 262 259 256 256 256 254 257 258 257 259 260 262 264 265 265 265 268 265 262 269 274 277 274 268 260 252 235 235 228 230 226
251 253 258 263 266 262 261 263 261 262 264 265 267 265 262 258 257 260 258 257 258 260 260 260 259 261 265 266 265 264 265 266 272 272 272 267 260 249 239 236 230 240 240
254 258 259 260 263 268 271 268 268 270 267 265 266 266 265 264 262 259 261 260 259 259 261 261 260 259 258 262 264 263 263 264 261 269 275 269 261 250 243 238 235 234 237
271 272 275 277 279 279 277 276 275 275 274 273 270 267 267 267 266 265 261 261 264 262 260 260 260 261 260 258 259 261 260 261 261 258 265 268 263 250 247 239 238 238 234
277 280 282 283 284 283 283 284 283 282 280 278 278 279 277 274 269 267 266 265 262 263 264 262 261 259 258 259 258 257 258 257 258 259 259 261 260 255 246 244 239 236 240
278 279 280 281 282 285 287 287 286 284 282 280 278 276 275 274 274 276 275 270 266 263 261 262 261 260 259 257 256 256 256 255 255 255 255 257 255 257 252 242 242 234 236
277 277 278 280 281 283 284 285 285 284 281 279 278 277 276 278 280 279 275 273 274 273 268 262 260 260 258 258 258 255 255 254 253 252 251 252 251 247 257 248 240 241 236
277 279 281 283 286 289 290 290 288 286 286 289 290 290 289 285 281 277 274 274 274 273 273 271 267 262 260 258 256 256 254 253 253 251 250 247 249 246 244 253 245 241 244
276 278 282 286 288 288 289 288 287 289 290 288 287 286 286 287 288 289 288 284 278 273 269 270 270 269 263 260 259 256 253 253 252 251 249 246 244 245 242 241 249 244 243
275 277 279 281 284 286 285 286 288 288 289 290 289 289 289 287 284 283 281 280 281 281 279 275 269 265 266 265 260 257 256 252 252 250 250 248 244 242 241 241 238 246 243
272 273 278 281 283 280 280 283 286 290 293 295 295 295 293 291 289 287 285 281 276 273 271 270 271 271 267 263 262 260 255 254 252 249 249 247 246 242 239 239 239 236 243
274 277 280 280 280 281 286 291 296 299 300 302 303 303 302 302 299 296 293 289 284 279 274 270 267 265 265 266 263 260 258 255 252 251 247 247 244 243 239 236 238 238 234
275 279 281 282 284 288 293 297 300 304 306 309 309 310 309 308 306 304 302 298 293 286 280 276 273 268 265 264 264 262 258 256 254 250 249 245 244 241 240 237 235 236 236
276 277 279 283 289 295 299 302 303 305 307 309 309 310 309 309 308 306 303 299 296 292 287 279 270 266 264 263 261 259 261 257 254 251 247 246 243 241 238 237 235 235 237
272 275 280 287 291 297 300 303 305 307 309 309 310 310 308 305 304 303 301 299 296 292 289 284 277 269 264 260 260 260 258 257 259 251 249 246 244 239 236 234 232 232 234
272 277 282 287 293 298 302 304 305 307 308 309 308 306 305 303 302 300 299 298 296 295 290 284 279 272 268 265 265 266 263 259 261 256 251 248 243 239 236 234 232 230 227
271 276 282 290 296 300 302 303 305 306 307 306 305 304 304 302 301 299 296 292 289 287 286 286 284 279 275 271 268 269 270 268 269 261 250 248 246 241 236 233 231 230 229
270 277 286 291 295 299 301 302 304 307 307 306 305 305 306 306 301 296 291 288 287 285 284 283 282 280 278 276 273 271 271 270 269 271 269 245 243 241 235 233 230 229 228
269 279 285 291 297 298 300 304 306 306 304 303 304 305 306 304 302 299 294 289 285 283 283 283 282 281 280 278 277 275 274 273 270 267 267 268 245 237 239 233 230 228 226